CZ-2C DEB

Satellite information

Favourite Embed

Satellite Type and Status

DEBRISIN ORBIT

Key statistics

Satellite CZ-2C DEB at a glance.

Uptime

5035

Days in orbit

Revolutions

≈ 14.9

Per day

Orbit

SSO

Sun Synchronous Orbit

Inclination

97.9

Latest

Satellite identification and parameters

Extended collection of information and parameters for CZ-2C DEB.

Object identification

Identified? True

Debris? True

Object name: CZ-2C DEB

International designator: 2011-039F

Object number (NORAD): 37770

Object ID (CCSDS): 37770

Country: PEOPLES REPUBLIC OF CHINA (PRC)

Current information (Y/N): Y

RCS size: SMALL

Orbital parameters

Period: 96.473 minutes

Inclination: 97.9203 deg

SMA: 6967.817 km

Apoapsis: 622.622 km

Periapsis: 556.741 km

RAAN: 51.787 deg

Eccentricy: 0.0047275

Argument of periapsis: 274.325 deg

Mean anomaly: 139.3585 deg

Mean motion: 14.92649002 rev/day

Mean motion (dot): 0.00015344 rev/day2

B* drag term: 0.0014608 1/REarth

Two-line elements (TLE)

Creation date: May 11, 2025, 2:40 a.m.

Reference frame: TEME

Reference center: EARTH

Epoch: May 10, 2025, 6:12 p.m. UTC

TLE line 0: 0 CZ-2C DEB

TLE line 1: 1 37770U 11039F 25130.75863774 .00015344 00000-0 14608-2 0 9994

TLE line 2: 2 37770 97.9203 51.7870 0047275 274.3250 139.3585 14.92649002733130

Live tracking on map

Real-time ground track for satellite CZ-2C DEB.

In-orbit conjunctions

A list of the most updated potential collisions computed for object CZ-2C DEB.

Target Orbit TCA Probability of collision Miss distance Type
CZ-2C DEB SSO 2024-08-21 18:06:10 0.0001290928 110.0 (m) DEBRIS

Associated space launch

CZ-2C DEB was lifted into orbit during the mission ‘Long March 2C | Shijian 10-02’, on board a Long March 2 space rocket.

The launch took place on July 29, 2011, 7:42 a.m. from Launch Area 4 (SLS-2 / 603).

For more information about the launch, click the button.

Launch to space Long March 2C | Shijian 10-02
Long March 2C | Shijian 10-02

Agency: N/A

Status: Launch Successful

Launch date: July 29, 2011, 7:42 a.m. UTC

Rocket: Long March 2

Launch pad: Launch Area 4 (SLS-2 / 603)

Location: Jiuquan Satellite Launch Center, People's Republic of China

...

Latest news about this satellite

There are no fresh news available about this satellite. Check back as we update our databases every day.


Newsletter sign-up

Weekly statistics, charts and insights to help you stay on top of the space industry.